Weather History for Macon, GA

Change the Weather History Date:

Sunday, March 9, 2014

  Actual Average Record
Temperature  
Mean Temperature 59 °F 55 °F  
Max Temperature 76 °F 68 °F 88 °F (1974)
Min Temperature 42 °F 43 °F 19 °F (1996)
Degree Days  
Heating Degree Days 6 10  
Month to date heating degree days 140 100  
Since 1 July heating degree days 2273 2025  
Cooling Degree Days 0 0  
Month to date cooling degree days 0 0  
Year to date cooling degree days 1 3  
Growing Degree Days 8 (Base 50)    
Moisture  
Dew Point 44 °F    
Average Humidity 65    
Maximum Humidity 96    
Minimum Humidity 33    
Precipitation  
Precipitation 0.00 in 0.15 in 1.45 in (1927)
Month to date precipitation 0.56 1.42  
Year to date precipitation 8.39 10.02  
Snow  
Snow 0.00 in 0.00 in 0.00 in (2002)
Month to date snowfall 0.0 0.1  
Since 1 July snowfall 2.1 0.6  
Snow Depth 0.00 in    
Sea Level Pressure  
Sea Level Pressure 30.12 in    
Wind  
Wind Speed 6 mph (WNW)    
Max Wind Speed 17 mph    
Max Gust Speed 21 mph    
Visibility 10 miles    
Events      
T = Trace of Precipitation, MM = Missing Value Source: NWS Daily Summary

Daily Weather History Graph

Daily Weather History Graph

Search for Another Location

Airport:

Trip Planner

Search our weather history database for the weather conditions in past years. The results will help you decide how hot, cold, wet, or windy it might be!

Date:

Astronomy

Mar. 09, 2014 Rise Set
Actual Time 7:52 AM EDT 7:38 PM EDT
Civil Twilight 7:27 AM EDT 8:02 PM EDT
Nautical Twilight 6:59 AM EDT 8:31 PM EDT
Astronomical Twilight 6:30 AM EDT 8:59 PM EDT
Moon 1:43 PM EDT (3/9) 3:03 AM EDT (3/9)
Length of Visible Light 12h 34m
Length of Day
11h 45m
First Quarter, 61% of the Moon is Illuminated
Mar 9
First Quarter
Mar 16
Full
Mar 23
Last Quarter
Mar 30
New
Apr 7
First Quarter

Hourly Weather History & Observations

Time (EDT) Temp. Windchill Dew Point Humidity Pressure Visibility Wind Dir Wind Speed Gust Speed Precip Events Conditions
12:53 AM 48.9 °F - 43.0 °F 80% 30.14 in 9.0 mi West 5.8 mph - N/A   Clear
1:53 AM 48.0 °F - 44.1 °F 86% 30.13 in 10.0 mi West 4.6 mph - N/A   Clear
3:53 AM 43.0 °F - 41.0 °F 93% 30.12 in 7.0 mi Calm Calm - N/A   Clear
4:53 AM 46.0 °F 44.8 °F 42.1 °F 86% 30.11 in 10.0 mi West 3.5 mph - N/A   Clear
5:53 AM 44.1 °F 40.1 °F 41.0 °F 89% 30.13 in 10.0 mi WNW 6.9 mph - N/A   Clear
6:53 AM 46.0 °F 43.1 °F 42.1 °F 86% 30.14 in 10.0 mi NW 5.8 mph - N/A   Clear
7:53 AM 45.0 °F 41.8 °F 42.1 °F 90% 30.16 in 10.0 mi WNW 5.8 mph - N/A   Clear
8:53 AM 50.0 °F - 46.0 °F 86% 30.18 in 10.0 mi WNW 5.8 mph - N/A   Clear
9:53 AM 55.9 °F - 46.9 °F 72% 30.19 in 10.0 mi WNW 5.8 mph - N/A   Clear
10:53 AM 61.0 °F - 46.0 °F 58% 30.19 in 10.0 mi West 4.6 mph - N/A   Clear
11:53 AM 66.0 °F - 45.0 °F 47% 30.18 in 10.0 mi West 6.9 mph - N/A   Clear
12:53 PM 70.0 °F - 44.1 °F 39% 30.17 in 10.0 mi WNW 10.4 mph 19.6 mph N/A   Clear
1:53 PM 72.0 °F - 44.1 °F 37% 30.14 in 10.0 mi West 12.7 mph 18.4 mph N/A   Clear
2:53 PM 73.0 °F - 44.1 °F 35% 30.11 in 10.0 mi Variable 6.9 mph - N/A   Partly Cloudy
3:53 PM 75.0 °F - 44.1 °F 33% 30.09 in 10.0 mi WNW 8.1 mph - N/A   Partly Cloudy
4:53 PM 75.0 °F - 44.1 °F 33% 30.08 in 10.0 mi WNW 10.4 mph - N/A   Partly Cloudy
5:53 PM 72.0 °F - 44.1 °F 37% 30.07 in 10.0 mi WNW 10.4 mph - N/A   Scattered Clouds
6:53 PM 71.1 °F - 45.0 °F 39% 30.07 in 10.0 mi WNW 9.2 mph - N/A   Clear
7:53 PM 66.9 °F - 44.1 °F 44% 30.08 in 10.0 mi Calm Calm - N/A   Mostly Cloudy
8:53 PM 63.0 °F - 45.0 °F 52% 30.08 in 10.0 mi WSW 3.5 mph - N/A   Clear
9:53 PM 60.1 °F - 46.0 °F 60% 30.10 in 10.0 mi West 4.6 mph - N/A   Clear
10:53 PM 59.0 °F - 45.0 °F 60% 30.11 in 10.0 mi West 4.6 mph - N/A   Clear
11:53 PM 55.0 °F - 45.0 °F 69% 30.11 in 10.0 mi NW 4.6 mph - N/A   Clear
12:53 AM 53.1 °F - 45.0 °F 74% 30.10 in 10.0 mi WNW 4.6 mph - N/A   Clear